• en Suisse
  • Liste des pays
  • À 7 jours
  • Température de l'eau
  • Carte satellitaire
  • Carte météo
  • Widgets météo
  • user-avatar
    Se connecter

    Météo par heure à Aminevo

    Ce jour, 16 Juillet, Lundi

    Heure Température Précipitation Vent Pression Humidité
    00:00 +17°C° 0 mm 3 m/s 712 mmHg 93%
    01:00 +16°C° 0 mm 2 m/s 712 mmHg 94%
    02:00 +16°C° 0 mm 2 m/s 712 mmHg 95%
    03:00 +15°C° 0 mm 2 m/s 712 mmHg 96%
    04:00 +16°C° 0 mm 3 m/s 712 mmHg 96%
    05:00 +17°C° 0 mm 3 m/s 713 mmHg 92%
    06:00 +18°C° 0 mm 3 m/s 713 mmHg 88%
    07:00 +19°C° 0 mm 3 m/s 713 mmHg 84%
    08:00 +20°C° 0 mm 4 m/s 713 mmHg 77%
    09:00 +21°C° 0 mm 4 m/s 714 mmHg 70%
    10:00 +23°C° 0 mm 4 m/s 714 mmHg 62%
    11:00 +23°C° 0 mm 4 m/s 714 mmHg 60%
    12:00 +25°C° 0 mm 4 m/s 714 mmHg 59%
    13:00 +25°C° 0 mm 5 m/s 714 mmHg 58%
    14:00 +25°C° 0 mm 5 m/s 713 mmHg 58%
    15:00 +25°C° 0 mm 5 m/s 713 mmHg 58%
    16:00 +25°C° 0 mm 5 m/s 713 mmHg 59%
    17:00 +23°C° 0 mm 4 m/s 713 mmHg 64%
    18:00 +22°C° 0 mm 4 m/s 713 mmHg 69%
    19:00 +21°C° 0 mm 3 m/s 713 mmHg 74%
    20:00 +20°C° 0 mm 3 m/s 713 mmHg 79%
    21:00 +18°C° 0 mm 3 m/s 713 mmHg 84%
    22:00 +17°C° 0 mm 3 m/s 713 mmHg 88%
    23:00 +16°C° 0 mm 3 m/s 713 mmHg 89%

    Demain, 17 Juillet, Mardi

    Heure Température Précipitation Vent Pression Humidité
    00:00 +16°C° 0 mm 3 m/s 713 mmHg 90%
    01:00 +14°C° 0 mm 3 m/s 713 mmHg 91%
    02:00 +14°C° 0 mm 3 m/s 713 mmHg 91%
    03:00 +14°C° 0 mm 3 m/s 713 mmHg 92%
    04:00 +14°C° 0 mm 3 m/s 713 mmHg 92%
    05:00 +16°C° 0 mm 3 m/s 713 mmHg 89%
    06:00 +17°C° 0 mm 3 m/s 713 mmHg 86%
    07:00 +18°C° 0 mm 3 m/s 713 mmHg 83%
    08:00 +19°C° 0 mm 4 m/s 713 mmHg 79%
    09:00 +20°C° 0 mm 4 m/s 713 mmHg 75%
    10:00 +21°C° 0 mm 4 m/s 713 mmHg 71%
    11:00 +22°C° 0 mm 4 m/s 713 mmHg 68%
    12:00 +23°C° 0 mm 4 m/s 713 mmHg 65%
    13:00 +25°C° 0 mm 4 m/s 713 mmHg 62%
    14:00 +26°C° 0 mm 4 m/s 713 mmHg 62%
    15:00 +26°C° 0 mm 4 m/s 713 mmHg 61%
    16:00 +26°C° 0 mm 4 m/s 713 mmHg 61%
    17:00 +25°C° 0,1 mm 4 m/s 712 mmHg 68%
    18:00 +24°C° 0,1 mm 3 m/s 712 mmHg 74%
    19:00 +22°C° 0,1 mm 3 m/s 712 mmHg 81%
    20:00 +21°C° 0,2 mm 3 m/s 712 mmHg 82%
    21:00 +20°C° 0,2 mm 3 m/s 712 mmHg 82%
    22:00 +19°C° 0,2 mm 4 m/s 711 mmHg 82%
    23:00 +19°C° 0,1 mm 4 m/s 711 mmHg 80%

    Après-demain, 18 Juillet, Mercredi

    Heure Température Précipitation Vent Pression Humidité
    00:00 +19°C° 0,1 mm 4 m/s 711 mmHg 79%
    01:00 +18°C° 0,1 mm 3 m/s 711 mmHg 77%
    02:00 +18°C° 0,3 mm 3 m/s 711 mmHg 80%
    03:00 +17°C° 0,3 mm 2 m/s 711 mmHg 83%
    04:00 +17°C° 0,3 mm 2 m/s 712 mmHg 86%
    05:00 +17°C° 0,2 mm 2 m/s 711 mmHg 86%
    06:00 +17°C° 0,2 mm 2 m/s 711 mmHg 86%
    07:00 +17°C° 0,2 mm 2 m/s 711 mmHg 86%
    08:00 +19°C° 0,1 mm 3 m/s 712 mmHg 79%
    09:00 +20°C° 0,1 mm 3 m/s 712 mmHg 73%
    10:00 +22°C° 0,1 mm 4 m/s 712 mmHg 66%
    11:00 +22°C° 0,1 mm 4 m/s 712 mmHg 66%
    12:00 +23°C° 0,1 mm 4 m/s 712 mmHg 65%
    13:00 +23°C° 0,1 mm 4 m/s 712 mmHg 65%
    14:00 +22°C° 0,4 mm 3 m/s 712 mmHg 70%
    15:00 +22°C° 0,4 mm 3 m/s 712 mmHg 74%
    16:00 +21°C° 0,4 mm 2 m/s 712 mmHg 79%
    17:00 +20°C° 0,8 mm 2 m/s 712 mmHg 82%
    18:00 +19°C° 0,8 mm 3 m/s 712 mmHg 86%
    19:00 +18°C° 0,8 mm 3 m/s 712 mmHg 89%
    20:00 +18°C° 0 mm 3 m/s 712 mmHg 89%
    21:00 +18°C° 0 mm 3 m/s 712 mmHg 89%
    22:00 +18°C° 0 mm 3 m/s 712 mmHg 88%
    23:00 +18°C° 0 mm 3 m/s 712 mmHg 88%

    19 Juillet, Jeudi

    Heure Température Précipitation Vent Pression Humidité
    00:00 +18°C° 0 mm 2 m/s 712 mmHg 88%
    01:00 +17°C° 0 mm 2 m/s 712 mmHg 87%
    02:00 +17°C° 0,1 mm 2 m/s 712 mmHg 88%
    03:00 +17°C° 0,1 mm 2 m/s 712 mmHg 89%
    04:00 +18°C° 0,1 mm 1 m/s 712 mmHg 91%
    05:00 +19°C° 0 mm 1 m/s 712 mmHg 88%
    06:00 +19°C° 0 mm 1 m/s 712 mmHg 85%
    07:00 +20°C° 0 mm 1 m/s 712 mmHg 82%
    08:00 +22°C° 0 mm 1 m/s 713 mmHg 75%
    09:00 +23°C° 0 mm 2 m/s 713 mmHg 67%
    10:00 +25°C° 0 mm 2 m/s 713 mmHg 60%
    11:00 +26°C° 0 mm 2 m/s 713 mmHg 58%
    12:00 +27°C° 0 mm 2 m/s 713 mmHg 56%
    13:00 +27°C° 0 mm 3 m/s 713 mmHg 54%
    14:00 +27°C° 0,1 mm 2 m/s 713 mmHg 56%
    15:00 +27°C° 0,1 mm 2 m/s 713 mmHg 58%
    16:00 +27°C° 0,1 mm 2 m/s 713 mmHg 59%
    17:00 +26°C° 0,2 mm 1 m/s 713 mmHg 65%
    18:00 +25°C° 0,2 mm 1 m/s 712 mmHg 71%
    19:00 +24°C° 0,2 mm 1 m/s 712 mmHg 77%
    20:00 +23°C° 0 mm 1 m/s 712 mmHg 80%
    21:00 +21°C° 0 mm 1 m/s 712 mmHg 83%
    22:00 +20°C° 0 mm 1 m/s 712 mmHg 87%
    23:00 +19°C° 0,4 mm 1 m/s 712 mmHg 89%

    20 Juillet, Vendredi

    Heure Température Précipitation Vent Pression Humidité
    00:00 +19°C° 0,4 mm 1 m/s 712 mmHg 90%
    01:00 +18°C° 0,4 mm 1 m/s 712 mmHg 92%
    02:00 +17°C° 0,1 mm 2 m/s 712 mmHg 94%
    03:00 +16°C° 0,1 mm 2 m/s 712 mmHg 95%
    04:00 +16°C° 0,1 mm 2 m/s 712 mmHg 96%
    05:00 +17°C° 0 mm 2 m/s 712 mmHg 93%
    06:00 +18°C° 0 mm 2 m/s 712 mmHg 91%
    07:00 +19°C° 0 mm 3 m/s 713 mmHg 88%
    08:00 +20°C° 0 mm 3 m/s 713 mmHg 80%
    09:00 +22°C° 0 mm 3 m/s 713 mmHg 72%
    10:00 +25°C° 0 mm 3 m/s 713 mmHg 64%
    11:00 +25°C° 0 mm 3 m/s 713 mmHg 61%
    12:00 +26°C° 0 mm 3 m/s 713 mmHg 58%
    13:00 +27°C° 0 mm 3 m/s 713 mmHg 55%
    14:00 +27°C° 0 mm 3 m/s 713 mmHg 56%
    15:00 +27°C° 0 mm 3 m/s 713 mmHg 56%
    16:00 +27°C° 0 mm 3 m/s 713 mmHg 57%
    17:00 +26°C° 0,2 mm 3 m/s 713 mmHg 65%
    18:00 +24°C° 0,2 mm 2 m/s 713 mmHg 73%
    19:00 +23°C° 0,2 mm 2 m/s 713 mmHg 81%
    20:00 +21°C° 0,1 mm 2 m/s 712 mmHg 85%
    21:00 +19°C° 0,1 mm 2 m/s 712 mmHg 89%
    22:00 +18°C° 0,1 mm 2 m/s 712 mmHg 93%
    23:00 +17°C° 0 mm 3 m/s 712 mmHg 94%

    21 Juillet, Samedi

    Heure Température Précipitation Vent Pression Humidité
    00:00 +17°C° 0 mm 3 m/s 712 mmHg 95%
    01:00 +17°C° 0 mm 3 m/s 712 mmHg 96%
    02:00 +16°C° 0 mm 3 m/s 712 mmHg 97%
    03:00 +16°C° 0 mm 3 m/s 712 mmHg 97%
    04:00 +16°C° 0 mm 3 m/s 712 mmHg 98%
    05:00 +17°C° 0 mm 3 m/s 712 mmHg 95%
    06:00 +17°C° 0 mm 3 m/s 713 mmHg 93%
    07:00 +18°C° 0 mm 4 m/s 713 mmHg 90%
    08:00 +19°C° 0 mm 4 m/s 713 mmHg 84%
    09:00 +20°C° 0 mm 5 m/s 713 mmHg 78%
    10:00 +22°C° 0 mm 6 m/s 713 mmHg 72%
    11:00 +22°C° 0 mm 6 m/s 713 mmHg 68%
    12:00 +23°C° 0 mm 6 m/s 714 mmHg 65%
    13:00 +24°C° 0 mm 6 m/s 714 mmHg 61%
    14:00 +24°C° 0 mm 6 m/s 714 mmHg 61%
    15:00 +23°C° 0 mm 6 m/s 714 mmHg 62%
    16:00 +23°C° 0 mm 6 m/s 714 mmHg 62%
    17:00 +22°C° 0 mm 6 m/s 714 mmHg 65%
    18:00 +21°C° 0 mm 5 m/s 714 mmHg 68%
    19:00 +20°C° 0 mm 5 m/s 714 mmHg 71%
    20:00 +19°C° 0 mm 5 m/s 714 mmHg 72%
    21:00 +17°C° 0 mm 5 m/s 715 mmHg 74%
    22:00 +16°C° 0 mm 5 m/s 715 mmHg 75%
    23:00 +15°C° 0 mm 5 m/s 715 mmHg 79%
    Voir plus